Regional Weather Roundup
Issued by NWS

Home | Current Version | Previous Version | Text Only | Print | Product List | Glossary Off
Versions: 1 2 3 4 5 6 7 8 9 10 11 12 13 14 15 16 17 18 19 20 21 22 23 24 25 26 27 28 29 30 31 32 33 34 35 36 37 38 39 40 41 42 43 44 45 46 47 48 49 50

421
ASUS43 KLOT 182308
RWRIL

ILLINOIS REGIONAL WEATHER ROUNDUP
NATIONAL WEATHER SERVICE CHICAGO/ROMEOVILLE IL
500 PM CST WED JAN 18 2017

NOTE: "FAIR" INDICATES FEW OR NO CLOUDS BELOW 12,000 FEET WITH NO
SIGNIFICANT WEATHER AND/OR OBSTRUCTIONS TO VISIBILITY.

* THESE STATIONS ARE NOT UNDER NWS QUALITY CONTROL. THEY ALSO MAY NOT
  REPORT WEATHER SUCH AS PRECIPITATION OR FOG.

ILZ001-002-007-009-015-016-024-190000-
NORTHWEST ILLINOIS

CITY           SKY/WX    TMP DP  RH WIND       PRES   REMARKS
MOLINE         CLEAR     40  34  79 S6        30.03F
STERLING*      CLOUDY    36  33  89 CALM      30.08R
SAVANNA*       CLOUDY    34  32  92 SW3       30.06R FOG
$$

ILZ003-004-008-010-011-017-018-190000-
NORTH CENTRAL ILLINOIS

CITY           SKY/WX    TMP DP  RH WIND       PRES   REMARKS
ROCKFORD       CLOUDY    37  31  78 SW7       30.07R WCI  32
FREEPORT*      CLOUDY    33  32  96 S7        30.06S FOG     WCI  27
ROCHELLE*      CLOUDY    35  32  90 SW10      30.07R WCI  27
DE KALB*       CLOUDY    35  33  92 SW7       30.07R WCI  29
$$

ILZ005-006-012>014-019>023-190000-
NORTHEAST ILLINOIS

CITY           SKY/WX    TMP DP  RH WIND       PRES   REMARKS
CHICAGO-OHARE  CLOUDY    35  31  85 SW8       30.07R WCI  29
CHICAGO-MIDWAY CLOUDY    35  31  85 S14G20    30.08R WCI  26
AURORA         CLOUDY    37  33  85 S5        30.07S WCI  33
LANSING*       CLOUDY    36  35  94 SW12      30.10R WCI  28
JOLIET*        CLOUDY    38  34  87 SW3       30.09S
WAUKEGAN       CLOUDY    33  30  88 SW14      30.04S WCI  23
DUPAGE AIRPORT CLOUDY    35  31  85 SW8       30.06R WCI  29
KANKAKEE*      CLOUDY    38  35  87 SW8       30.11R WCI  32
WHEELING       CLOUDY    35  30  82 SW8       30.08R WCI  29
MORRIS*        CLOUDY    37  33  87 SW7       30.09R WCI  31
ROMEOVILLE*    CLOUDY    36  35  96 SW8       30.09R WCI  29
NORTHERLY ISL    N/A     37  31  79 S7          N/A  WCI  32
$$

LMZ740>746-190000-
SOUTHERN LAKE MICHIGAN

STATION/POSITION SKY/WX   TEMP    WIND        PRES    VSBY  WAVE
                          AIR SEA DIR/SP/G                  HT/PER
                          (F)     (DEG/KT/KT) (MB)    (MI)  (FT/S)
HARRISON CRIB              38     210/ 10/ 11   N/A
BURNHAM HARBOR             37     220/  6/ 12   N/A
CALUMET HARBOR             36     200/ 14/ 17 1017.8R
BURNS HARBOR               37     220/ 14/ 17 1019.3R
$$

ILZ025>027-034>036-040-047-049-050-058-095>099-190000-
WEST-CENTRAL ILLINOIS

CITY           SKY/WX    TMP DP  RH WIND       PRES   REMARKS
QUINCY         CLEAR     40  35  83 S7        30.07F
GALESBURG*     CLOUDY    38  35  88 S3        30.06S
MACOMB*        CLEAR     41  36  82 S7        30.08S
JACKSONVILLE*  CLEAR     42  35  76 S3        30.09S
PITTSFIELD*    CLEAR     43  35  74 S5        30.09F
$$

ILZ028>032-037-038-041>044-048-051>054-059>061-190000-
CENTRAL ILLINOIS

CITY           SKY/WX    TMP DP  RH WIND       PRES   REMARKS
PONTIAC        CLOUDY    38  37  94 SW5       30.10S WCI  35
BLOOMINGTON    CLOUDY    36  34  92 S10       30.09R WCI  28
DECATUR        CLOUDY    41  37  86 S9        30.11R
PEORIA         CLOUDY    37  34  89 S7        30.09R WCI  32
LACON*         CLEAR     34  31  90 S3        30.08S
LINCOLN*       PTCLDY    41  38  86 S5        30.10R
SPRINGFIELD    CLEAR     43  36  76 S7        30.10R
TAYLORVILLE    CLOUDY    40  37  86 S7        30.11F
$$

ILZ033-039-045-046-055>057-062-063-190000-
EAST-CENTRAL ILLINOIS

CITY           SKY/WX    TMP DP  RH WIND       PRES   REMARKS
CHAMPAIGN      CLOUDY    38  34  85 S10       30.10F WCI  31
RANTOUL*       CLOUDY    40  37  87 SW8       30.10S
MATTOON        MOCLDY    38  34  85 S8        30.12R WCI  32
PARIS*         CLOUDY    38  35  92 S8        30.13R WCI  32
$$

ILZ079-100>102-190000-
SOUTHWEST ILLINOIS

CITY           SKY/WX    TMP DP  RH WIND       PRES   REMARKS
ALTON          MOCLDY    43  36  75 S8        30.10F
BELLEVILLE     PTCLDY    42  37  80 CALM      30.09F
CAHOKIA*       CLOUDY    44  34  67 S5        30.10F
SPARTA*        CLOUDY    43  36  75 S5        30.12F
$$

ILZ064>066-069>071-074>076-080>082-084>086-088>090-092>094-190000-
SOUTH-CENTRAL ILLINOIS

CITY           SKY/WX    TMP DP  RH WIND       PRES   REMARKS
CARBONDALE     CLOUDY    44  39  82 S5        30.12F
CAIRO*         CLOUDY    43  39  86 NE5       30.12F
EFFINGHAM*     CLOUDY    40  37  89 E6        30.14F
MARION         MOCLDY    48  39  71 S6        30.12F
MT. VERNON     CLOUDY    43  37  79 SE3       30.12F
CENTRALIA*     PTCLDY    44  38  81 SE5       30.11F
SALEM*         PTCLDY    45  36  72 S5        30.11F
METROPOLIS*    MOCLDY    44  39  82 CALM      30.13F
$$

ILZ067-068-072-073-078-083-087-091-190000-
SOUTHEAST ILLINOIS

CITY           SKY/WX    TMP DP  RH WIND       PRES   REMARKS
LAWRENCEVILLE  CLOUDY    41  37  86 S10       30.16R
FLORA*         CLOUDY    41  37  86 SE5       30.13F
FAIRFIELD*     CLOUDY    42  37  84 S3        30.12F
HARRISBURG*    PTCLDY    45  40  83 SE5       30.14F
ROBINSON*      CLOUDY    39  35  87 SW8       30.16R WCI  33
CARMI*         CLOUDY    42  38  88 SE6       30.14F
$$

ABBREVIATIONS USED IN REMARKS
   TC - TEMPERATURE IN CELSIUS
  WCI - WIND CHILL INDEX
   HX - HEAT INDEX
  VSB - VISIBILITY
$$





USA.gov is the U.S. government's official web portal to all federal, state and local government web resources and services.